Regional Weather Roundup
Issued by NWS

Home | Current Version | Previous Version | Text Only | Print | Product List | Glossary On
Versions: 1 2 3 4 5 6 7 8 9 10 11 12 13 14 15 16 17 18 19 20 21 22 23 24 25 26 27 28 29 30 31 32 33 34 35 36 37 38 39 40 41 42 43 44 45 46 47 48 49 50
000
ASUS43 KMKX 291821
RWRWI

WISCONSIN REGIONAL WEATHER ROUNDUP
NATIONAL WEATHER SERVICE MILWAUKEE/SULLIVAN WI
100 PM CDT WED JUL 29 2015

NOTE: "FAIR" INDICATES FEW OR NO CLOUDS BELOW 12,000 FEET WITH NO
SIGNIFICANT WEATHER AND/OR OBSTRUCTIONS TO VISIBILITY.

WIZ001-002-006>008-014>016-023>028-291900-
NORTHWEST WISCONSIN

CITY           SKY/WX    TMP DP  RH WIND       PRES   REMARKS
SUPERIOR ARPT  CLOUDY    70  56  62 W15G24    29.77F
6HR MIN TEMP:  64; 6HR MAX TEMP:  70;

ASHLAND        CLOUDY    70  56  61 SW18G29   29.79R
6HR MIN TEMP:  67; 6HR MAX TEMP:  72;

HAYWARD        CLOUDY    72  53  51 W13G24    29.86R
6HR MIN TEMP:  67; 6HR MAX TEMP:  72;

SIREN          PTSUNNY   75  54  47 W21G26    29.86F
6HR MIN TEMP:  65; 6HR MAX TEMP:  75;

CUMBERLAND     PTSUNNY   72  52  49 W16G30    29.89S
RICE LAKE      PTSUNNY   74  55  51 W20G26    29.91S
6HR MIN TEMP:  64; 6HR MAX TEMP:  74;

CHETEK         FAIR     N/A N/A N/A W14G33    29.90R
LADYSMITH      FAIR      76  54  44 W21G38    29.89S
6HR MIN TEMP:  64; 6HR MAX TEMP:  76;

EAU CLAIRE     FAIR      81  51  35 W21G39    29.90S HX  80
6HR MIN TEMP:  66; 6HR MAX TEMP:  81;

MENOMONIE      FAIR      79  50  35 W24G38    29.91S
6HR MIN TEMP:  67; 6HR MAX TEMP:  80;

NEW RICHMOND   FAIR      77  52  41 W25G36    29.92S
6HR MIN TEMP:  64; 6HR MAX TEMP:  77;

OSCEOLA        FAIR      77  55  46 W24G31    29.94S
6HR MIN TEMP:  68; 6HR MAX TEMP:  77;

$$

WIZ003>005-009-010-017-018-291900-
NORTH CENTRAL WISCONSIN

CITY           SKY/WX    TMP DP  RH WIND       PRES   REMARKS
MANITOWISH WTR CLOUDY    72  53  51 W25G36    29.83R
ARBOR VITAE    MOSUNNY   77  56  48 W15G29    29.83
6HR MIN TEMP:  64; 6HR MAX TEMP:  77;

WOODRUFF       MOSUNNY   77  56  48 W15G29    29.83
6HR MIN TEMP:  64; 6HR MAX TEMP:  77;

RHINELANDER    MOSUNNY   79  51  37 W23G33    29.84S
6HR MIN TEMP:  66; 6HR MAX TEMP:  79;

EAGLE RIVER    MOSUNNY   76  49  39 W20G30    29.82R
6HR MIN TEMP:  65; 6HR MAX TEMP:  76;

LAND O LAKES   PTSUNNY   74  50  42 W16G28    29.82R
6HR MIN TEMP:  66; 6HR MAX TEMP:  75;

PHILLIPS       FAIR      75  54  49 W16G29    29.85R
6HR MIN TEMP:  63; 6HR MAX TEMP:  75;

TOMAHAWK       SUNNY     77  52  42 W17G29    29.86R
6HR MIN TEMP:  63; 6HR MAX TEMP:  77;

MEDFORD        FAIR      76  52  43 W22G31    29.88S
6HR MIN TEMP:  63; 6HR MAX TEMP:  76;

MERRILL        NOT AVBL
$$

WIZ029-030-035-036-043>047-291900-
CENTRAL WISCONSIN

CITY           SKY/WX    TMP DP  RH WIND       PRES   REMARKS
WAUSAU         FAIR      81  47  30 W25G39    29.87S HX  80
6HR MIN TEMP:  68; 6HR MAX TEMP:  82;

MOSINEE        SUNNY     79  48  34 W25G37    29.90S
MARSHFIELD     FAIR      80  47  31 W25G35    29.91S
6HR MIN TEMP:  66; 6HR MAX TEMP:  80;

STEVENS POINT  FAIR      78  50  36 W16G24    29.91S
6HR MIN TEMP:  67; 6HR MAX TEMP:  78;

WAUPACA        SUNNY     83  47  28 W17G26    29.90F HX  81
6HR MIN TEMP:  73; 6HR MAX TEMP:  83;

WAUTOMA        SUNNY     85  48  27 W18G33    29.93S HX  82
6HR MIN TEMP:  73; 6HR MAX TEMP:  85;

WISC RAPIDS    FAIR      82  47  29 W17G32    29.93F HX  80
6HR MIN TEMP:  69; 6HR MAX TEMP:  82;

CAMP DOUGLAS   SUNNY     81  54  39 W20G29    29.95F HX  80
$$

WIZ011>013-019>022-031-037>040-048>050-291900-
NORTHEAST WISCONSIN

CITY           SKY/WX    TMP DP  RH WIND       PRES   REMARKS
ANTIGO         SUNNY     78  52  40 W22G30    29.86F
SHAWANO        SUNNY     82  50  32 W17G29    29.87S HX  81
6HR MIN TEMP:  74; 6HR MAX TEMP:  82;

OCONTO         SUNNY     83  52  34 W17G31    29.83F HX  81
6HR MIN TEMP:  74; 6HR MAX TEMP:  83;

STURGEON BAY   SUNNY     82  52  34 W18G30    29.86S HX  81
6HR MIN TEMP:  73; 6HR MAX TEMP:  81;

GREEN BAY      SUNNY     83  52  34 W18G32    29.87S HX  82
6HR MIN TEMP:  74; 6HR MAX TEMP:  83;

MANITOWOC      SUNNY     83  50  31 MISG      29.89S HX  81
6HR MIN TEMP:  76; 6HR MAX TEMP:  83;

APPLETON       MOSUNNY   81  46  30 W20G29    29.91S HX  80
CLINTONVILLE   SUNNY     81  45  28 W18G32    29.88S
OSHKOSH        SUNNY     82  51  34 W15G25    29.91S HX  81
6HR MIN TEMP:  74; 6HR MAX TEMP:  83;

$$

WIZ032>034-041-042-053>061-291900-
SOUTHWEST WISCONSIN

CITY           SKY/WX    TMP DP  RH WIND       PRES   REMARKS
LA CROSSE      FAIR      83  51  33 W22G32    29.96S HX  81
6HR MIN TEMP:  71; 6HR MAX TEMP:  83;

SPARTA         FAIR      81  48  31 W16G24    29.96F HX  80
6HR MIN TEMP:  64; 6HR MAX TEMP:  81;

VIROQUA        FAIR      78  52  39 W14G22    30.02R
6HR MIN TEMP:  66; 6HR MAX TEMP:  78;

BOSCOBEL       FAIR      85  54  34 W13G22    30.00F HX  83
6HR MIN TEMP:  71; 6HR MAX TEMP:  85;

PRAIRIE DU CHI FAIR      82  46  28 W21G29    30.01S HX  81
6HR MIN TEMP:  71; 6HR MAX TEMP:  82;

PLATTEVILLE    FAIR      79  54  41 W10G22    30.04R
6HR MIN TEMP:  69; 6HR MAX TEMP:  80;

$$

WIZ056-057-062-063-064-067-068-291900-
SOUTH CENTRAL WISCONSIN

CITY           SKY/WX    TMP DP  RH WIND       PRES   REMARKS
REEDSBURG      FAIR      82  51  33 W15G30    29.97S HX  81
6HR MIN TEMP:  71; 6HR MAX TEMP:  83;

BARABOO/DELLS  FAIR      82  43  25 NW15G25   29.97F HX  80
6HR MIN TEMP:  72; 6HR MAX TEMP:  83;

LONE ROCK      FAIR      82  51  34 W15G24    30.00S HX  81
6HR MIN TEMP:  72; 6HR MAX TEMP:  83;

MINERAL POINT  FAIR      81  46  30 W12G23    30.03S HX  80
MADISON        FAIR      82  51  34 W12G21    29.98S HX  81
6HR MIN TEMP:  70; 6HR MAX TEMP:  82;

MIDDLETON      FAIR      83  45  26 W17       30.00R HX  81
6HR MIN TEMP:  73; 6HR MAX TEMP:  83;

WATERTOWN      SUNNY     81  54  39 W15G21    29.97F HX  80
6HR MIN TEMP:  66; 6HR MAX TEMP:  81; 6HR PCP:  0.02;

MONROE         FAIR      81  52  36 W14G21    30.02F HX  80
JANESVILLE     MOSUNNY   84  48  28 W13       30.00S HX  82
$$

WIZ051-052-058>065-066-070>072-291900-
SOUTHEAST WISCONSIN

CITY           SKY/WX    TMP DP  RH WIND       PRES   REMARKS
MILWAUKEE      MOSUNNY   84  48  28 W15G25    29.96S HX  82
6HR MIN TEMP:  77; 6HR MAX TEMP:  84; 6HR PCP: TRACE;

WAUKESHA       SUNNY     81  48  32 W14G25    29.98F HX  80
MILWAUKEE/TIMM SUNNY     82  45  26 W18       29.97S HX  80
RACINE         MOSUNNY   83  53  35 W13G22    29.99S HX  82
6HR MIN TEMP:  77; 6HR MAX TEMP:  84; 6HR PCP: TRACE;

BURLINGTON     MOSUNNY   81  52  36 W9G17     29.99S HX  80
6HR MIN TEMP:  72; 6HR MAX TEMP:  81;

KENOSHA        MOSUNNY   82  59  45 W18       29.99R HX  82
6HR MIN TEMP:  76; 6HR MAX TEMP:  82;

FOND DU LAC    SUNNY     83  50  31 W16G26    29.93S HX  81
6HR MIN TEMP:  75; 6HR MAX TEMP:  83;

SHEBOYGAN      MOSUNNY   83  53  35 W16G29    29.91F HX  82
6HR MIN TEMP:  75; 6HR MAX TEMP:  83; 6HR PCP: TRACE;

WEST BEND      SUNNY     81  48  32 W14G21    29.95S HX  80
JUNEAU         SUNNY     79  53  40 W12       29.97S
6HR MIN TEMP:  71; 6HR MAX TEMP:  79; 6HR PCP:  0.02;

$$

LSZ147-162-291900-
LAKE SUPERIOR

STATION/POSITION TIME  TEMP    WIND        PRES    WAVE
                       AIR SEA DIR/SP/G            HT/PER
                 (UTC) (F)     (DEG/KT/KT) (MB)    (FT/S)
W MID LAKE BUOY  1750   64 57  240/ 23/ 27 1005.2R   7/ 7
DEVILS ISLAND    1800   67     240/ 30/ 35 1006.3R
PORT WING        1735   70     240/ 13/ 27 1008.1R
SAXON HARBOR     1700   72                 1008.1R
$$

LMZ867-665-643>646-291900-
LAKE MICHIGAN

STATION/POSITION TIME  TEMP    WIND        PRES    WAVE
                       AIR SEA DIR/SP/G            HT/PER
                 (UTC) (F)     (DEG/KT/KT) (MB)    (FT/S)
CHAMBERS ISLAND  1700   78     210/ 10/ 17 1009.1F
N MID LAKE BUOY  1750   73 70  210/ 17/ 19 1008.7F   2/ 4
NORTHPORT PIER   1700   80     230/  7/ 19 1009.1F


USA.gov is the U.S. government's official web portal to all federal, state and local government web resources and services.